Regional Weather Roundup
Issued by NWS Sioux Falls, SD

Home | Current Version | Previous Version | Text Only | Print | Product List | Glossary On
Versions: 1 2 3 4 5 6 7 8 9 10 11 12 13 14 15 16 17 18 19 20 21 22 23 24 25 26 27 28 29 30 31 32 33 34 35 36 37 38 39 40 41 42 43 44 45 46 47 48 49 50
572
ASUS43 KFSD 120910
RWRFSD

WEATHER ROUNDUP FOR SE SOUTH DAKOTA/SW MINNESOTA/NW IOWA
NATIONAL WEATHER SERVICE SIOUX FALLS SD
300 AM CST FRI FEB 12 2016

NOTE: "FAIR" INDICATES FEW OR NO CLOUDS BELOW 12,000 FEET WITH NO
SIGNIFICANT WEATHER AND OR OBSTRUCTIONS TO VISIBILITY.


SDZ038>040-050-052>070-121000-
SOUTHEAST SOUTH DAKOTA

CITY           SKY/WX    TMP DP  RH WIND       PRES   REMARKS
BROOKINGS      FLURRIES  14  10  84 NW9       30.27R WCI   2
CHAMBERLAIN    CLOUDY    21  21  98 NE9       30.30R FOG     WCI  11
HURON          CLOUDY    15  11  83 N15       30.34R WCI   0
MADISON        FLURRIES  16  16 100 N9        30.26R WCI   4
MITCHELL       CLOUDY    20  15  81 N13       30.33R WCI   7
SIOUX FALLS    CLOUDY    18  14  84 N8        30.27R WCI   8
WINNER         CLOUDY    29  26  89 N10       30.28R FOG     WCI  20
YANKTON        CLOUDY    19  18  93 NW9       30.31R WCI   9
$$

MNZ071-072-080-081-089-090-097-098-121000-
SOUTHWEST MINNESOTA

CITY           SKY/WX    TMP DP  RH WIND       PRES   REMARKS
FAIRMONT       CLOUDY    16  10  79 NW12      30.21R WCI   3
JACKSON        CLOUDY    18  12  79 NW14      30.22R WCI   4
LUVERNE        CLOUDY    19  16  86 N10       30.26R WCI   8
MARSHALL       FLURRIES  11   7  84 NW16      30.29R WCI  -6
MONTEVIDEO     PTCLDY     7   3  85 N9        30.32R WCI  -7
PIPESTONE      PTCLDY    16   9  73 N9        30.24R WCI   4
REDWOOD FALLS  PTCLDY    14  10  84 NW12G22   30.26R WCI   0
TRACY          CLOUDY    13  10  88 NW16G22   30.26R WCI  -3
WINDOM         LGT SNOW  14  10  85 NW16      30.22R WCI  -2
WORTHINGTON    CLOUDY    14   9  79 NW15      30.23R WCI  -1
$$

IAZ001>003-012>014-020>022-031-032-NEZ013-014-SDZ071-121000-
NORTHWEST IOWA

CITY           SKY/WX    TMP DP  RH WIND       PRES   REMARKS
CHEROKEE       CLOUDY    15  14  96 N8        30.27R WCI   4
DENISON        CLOUDY    19  16  86 NW8       30.23R WCI   9
ESTHERVILLE    CLOUDY    14  11  87 NW12      30.21S WCI   0
LE MARS        CLOUDY    14  16 100 NW5       30.30R WCI   6
ORANGE CITY    CLOUDY    16  16 100 NW5       30.26R WCI   9
SHELDON        FLURRIES  14  12  92 NW9       30.25R WCI   2
SIOUX CITY     CLOUDY    15  11  83 W7        30.30R FOG     WCI   5
SPENCER        CLOUDY    16  11  80 NW14      30.24R WCI   2
STORM LAKE     CLOUDY    14  14 100 NW16      30.23R WCI  -2
$$

ABBREVIATIONS USED IN REMARKS
   TC - TEMPERATURE IN CELSIUS
  WCI - WIND CHILL INDEX
   HX - HEAT INDEX
  VSB - VISIBILITY





USA.gov is the U.S. government's official web portal to all federal, state and local government web resources and services.